"Sample Date","Sample Time","Sensor Name","Sample Value","Units","Flow Rate","Sample Interval","Sample Volume","Laser Status","Number Channels","Micron Size 0","Counts/Channel 0","Micron Size 1","Counts/Channel 1","Micron Size 2","Counts/Channel 2","Micron Size 3","Counts/Channel 3","Micron Size 4","Counts/Channel 4","Micron Size 5","Counts/Channel 5","Micron Size 6","Counts/Channel 6","Micron Size 7","Counts/Channel 7","Micron Size 8","Counts/Channel 8","Micron Size 9","Counts/Channel 9","Micron Size 10","Counts/Channel 10","Micron Size 11","Counts/Channel 11","Micron Size 12","Counts/Channel 12","Micron Size 13","Counts/Channel 13","Micron Size 14","Counts/Channel 14","Micron Size 15","Counts/Channel 15","Micron Size 16","Counts/Channel 16","Micron Size 17","Counts/Channel 17","Micron Size 18","Counts/Channel 18","Micron Size 19","Counts/Channel 19","Micron Size 20","Counts/Channel 20","Micron Size 21","Counts/Channel 21","Micron Size 22","Counts/Channel 22","Micron Size 23","Counts/Channel 23","Micron Size 24","Counts/Channel 24","Micron Size 25","Counts/Channel 25","Micron Size 26","Counts/Channel 26","Micron Size 27","Counts/Channel 27","Micron Size 28","Counts/Channel 28","Micron Size 29","Counts/Channel 29","Micron Size 30","Counts/Channel 30","Micron Size 31","Counts/Channel 31"
"07/03/06","18:00:02","AMMA06",78492.000,"cc",28292.090,6.00,2829.209,1,6,0.100,43003.000,0.200,26799.000,0.300,5412.000,0.500,2000.000,1.000,1278.000,5.000,0
"07/03/06","18:00:08","AMMA06",79366.000,"cc",28306.738,6.00,2830.674,1,6,0.100,43932.000,0.200,26566.000,0.300,5537.000,0.500,2095.000,1.000,1234.000,5.000,2.000
"07/03/06","18:00:14","AMMA06",79065.000,"cc",28336.602,6.00,2833.660,1,6,0.100,43631.000,0.200,26694.000,0.300,5408.000,0.500,2092.000,1.000,1238.000,5.000,2.000
"07/03/06","18:00:20","AMMA06",80310.000,"cc",28333.262,6.00,2833.326,1,6,0.100,44750.000,0.200,26675.000,0.300,5516.000,0.500,2109.000,1.000,1258.000,5.000,2.000
"07/03/06","18:00:26","AMMA06",80622.000,"cc",28296.508,6.00,2829.651,1,6,0.100,45050.000,0.200,26962.000,0.300,5334.000,0.500,2025.000,1.000,1249.000,5.000,2.000
"07/03/06","18:00:32","AMMA06",80737.000,"cc",28285.516,6.00,2828.552,1,6,0.100,45314.000,0.200,26835.000,0.300,5391.000,0.500,1988.000,1.000,1208.000,5.000,1.000
"07/03/06","18:00:38","AMMA06",80859.000,"cc",28279.363,6.00,2827.937,1,6,0.100,45345.000,0.200,26888.000,0.300,5425.000,0.500,1976.000,1.000,1225.000,5.000,0
"07/03/06","18:00:44","AMMA06",80522.000,"cc",28358.383,6.00,2835.838,1,6,0.100,45018.000,0.200,26818.000,0.300,5387.000,0.500,2098.000,1.000,1199.000,5.000,2.000
"07/03/06","18:00:50","AMMA06",80555.000,"cc",28367.895,6.00,2836.790,1,6,0.100,45043.000,0.200,27068.000,0.300,5269.000,0.500,1976.000,1.000,1198.000,5.000,1.000
"07/03/06","18:00:56","AMMA06",81283.000,"cc",28304.791,6.00,2830.479,1,6,0.100,45592.000,0.200,26787.000,0.300,5608.000,0.500,2068.000,1.000,1226.000,5.000,2.000
"07/03/06","18:01:02","AMMA06",81562.000,"cc",28288.365,6.00,2828.837,1,6,0.100,46004.000,0.200,26928.000,0.300,5398.000,0.500,1991.000,1.000,1239.000,5.000,2.000
"07/03/06","18:01:08","AMMA06",82244.000,"cc",28317.035,6.00,2831.704,1,6,0.100,46177.000,0.200,27365.000,0.300,5425.000,0.500,2044.000,1.000,1231.000,5.000,2.000
"07/03/06","18:01:14","AMMA06",81969.000,"cc",28336.375,6.00,2833.638,1,6,0.100,46428.000,0.200,26805.000,0.300,5436.000,0.500,2043.000,1.000,1255.000,5.000,2.000
"07/03/06","18:01:20","AMMA06",81977.000,"cc",28323.053,6.00,2832.305,1,6,0.100,46180.000,0.200,27038.000,0.300,5430.000,0.500,2073.000,1.000,1256.000,5.000,0
"07/03/06","18:01:26","AMMA06",82283.000,"cc",28341.549,6.00,2834.155,1,6,0.100,46424.000,0.200,27177.000,0.300,5348.000,0.500,2048.000,1.000,1283.000,5.000,3.000
"07/03/06","18:01:32","AMMA06",82080.000,"cc",28300.602,6.00,2830.060,1,6,0.100,46259.000,0.200,27163.000,0.300,5329.000,0.500,2073.000,1.000,1254.000,5.000,2.000
"07/03/06","18:01:38","AMMA06",82553.000,"cc",28268.426,6.00,2826.843,1,6,0.100,47033.000,0.200,26969.000,0.300,5364.000,0.500,2053.000,1.000,1133.000,5.000,1.000
"07/03/06","18:01:44","AMMA06",83134.000,"cc",28366.824,6.00,2836.683,1,6,0.100,47361.000,0.200,26877.000,0.300,5523.000,0.500,2095.000,1.000,1277.000,5.000,1.000
"07/03/06","18:01:50","AMMA06",82896.000,"cc",28320.027,6.00,2832.003,1,6,0.100,47064.000,0.200,27021.000,0.300,5493.000,0.500,2051.000,1.000,1267.000,5.000,0
"07/03/06","18:01:56","AMMA06",83229.000,"cc",28349.193,6.00,2834.919,1,6,0.100,47065.000,0.200,27334.000,0.300,5555.000,0.500,1991.000,1.000,1283.000,5.000,1.000
"07/03/06","18:02:02","AMMA06",83929.000,"cc",28318.193,6.00,2831.820,1,6,0.100,47834.000,0.200,27327.000,0.300,5489.000,0.500,2023.000,1.000,1256.000,5.000,0
"07/03/06","18:02:08","AMMA06",83397.000,"cc",28274.342,6.00,2827.434,1,6,0.100,47443.000,0.200,27135.000,0.300,5525.000,0.500,2022.000,1.000,1271.000,5.000,1.000
"07/03/06","18:02:14","AMMA06",83381.000,"cc",28309.916,6.00,2830.992,1,6,0.100,47368.000,0.200,27004.000,0.300,5614.000,0.500,2082.000,1.000,1312.000,5.000,1.000
"07/03/06","18:02:20","AMMA06",83485.000,"cc",28317.994,6.00,2831.800,1,6,0.100,47215.000,0.200,27428.000,0.300,5581.000,0.500,2027.000,1.000,1232.000,5.000,2.000
"07/03/06","18:02:26","AMMA06",84491.000,"cc",28301.104,6.00,2830.111,1,6,0.100,48222.000,0.200,27412.000,0.300,5572.000,0.500,2074.000,1.000,1211.000,5.000,0
"07/03/06","18:02:32","AMMA06",85126.000,"cc",28346.705,6.00,2834.671,1,6,0.100,48798.000,0.200,27472.000,0.300,5647.000,0.500,1963.000,1.000,1246.000,5.000,0
"07/03/06","18:02:38","AMMA06",84904.000,"cc",28283.660,6.00,2828.366,1,6,0.100,48379.000,0.200,27522.000,0.300,5631.000,0.500,2089.000,1.000,1283.000,5.000,0
"07/03/06","18:02:44","AMMA06",86030.000,"cc",28360.742,6.00,2836.075,1,6,0.100,49268.000,0.200,27587.000,0.300,5748.000,0.500,2122.000,1.000,1303.000,5.000,2.000
"07/03/06","18:02:50","AMMA06",86759.000,"cc",28326.117,6.00,2832.612,1,6,0.100,50065.000,0.200,27664.000,0.300,5744.000,0.500,2021.000,1.000,1264.000,5.000,1.000
"07/03/06","18:02:56","AMMA06",87305.000,"cc",28312.123,6.00,2831.212,1,6,0.100,50186.000,0.200,28064.000,0.300,5745.000,0.500,2049.000,1.000,1261.000,5.000,0
"07/03/06","18:03:02","AMMA06",88220.000,"cc",28276.430,6.00,2827.643,1,6,0.100,50902.000,0.200,28304.000,0.300,5644.000,0.500,2083.000,1.000,1286.000,5.000,1.000
"07/03/06","18:03:08","AMMA06",88276.000,"cc",28343.711,6.00,2834.371,1,6,0.100,51356.000,0.200,27942.000,0.300,5646.000,0.500,2123.000,1.000,1208.000,5.000,1.000
"07/03/06","18:03:14","AMMA06",87712.000,"cc",28300.662,6.00,2830.066,1,6,0.100,50595.000,0.200,28063.000,0.300,5696.000,0.500,2045.000,1.000,1312.000,5.000,1.000
"07/03/06","18:03:20","AMMA06",87707.000,"cc",28273.785,6.00,2827.379,1,6,0.100,50595.000,0.200,28094.000,0.300,5649.000,0.500,2090.000,1.000,1279.000,5.000,0
"07/03/06","18:03:26","AMMA06",88136.000,"cc",28342.162,6.00,2834.216,1,6,0.100,50736.000,0.200,28127.000,0.300,5897.000,0.500,2072.000,1.000,1303.000,5.000,1.000
"07/03/06","18:03:32","AMMA06",88006.000,"cc",28345.799,6.00,2834.580,1,6,0.100,50881.000,0.200,28146.000,0.300,5772.000,0.500,2006.000,1.000,1199.000,5.000,2.000
"07/03/06","18:03:38","AMMA06",87615.000,"cc",28374.248,6.00,2837.425,1,6,0.100,50533.000,0.200,27993.000,0.300,5718.000,0.500,2086.000,1.000,1283.000,5.000,2.000
"07/03/06","18:03:44","AMMA06",88108.000,"cc",28293.104,6.00,2829.311,1,6,0.100,50670.000,0.200,28295.000,0.300,5876.000,0.500,2000.000,1.000,1267.000,5.000,0
"07/03/06","18:03:50","AMMA06",88131.000,"cc",28291.373,6.00,2829.138,1,6,0.100,50552.000,0.200,28393.000,0.300,5894.000,0.500,2039.000,1.000,1253.000,5.000,0
"07/03/06","18:03:56","AMMA06",88119.000,"cc",28319.994,6.00,2832.000,1,6,0.100,50859.000,0.200,27973.000,0.300,5857.000,0.500,2104.000,1.000,1325.000,5.000,1.000
"07/03/06","18:04:02","AMMA06",87725.000,"cc",28336.871,6.00,2833.687,1,6,0.100,50600.000,0.200,28062.000,0.300,5689.000,0.500,2077.000,1.000,1296.000,5.000,1.000
"07/03/06","18:04:08","AMMA06",88113.000,"cc",28270.934,6.00,2827.094,1,6,0.100,50786.000,0.200,28207.000,0.300,5840.000,0.500,2037.000,1.000,1241.000,5.000,2.000
"07/03/06","18:04:14","AMMA06",87756.000,"cc",28372.428,6.00,2837.243,1,6,0.100,50825.000,0.200,27815.000,0.300,5763.000,0.500,2114.000,1.000,1239.000,5.000,0
"07/03/06","18:04:20","AMMA06",88178.000,"cc",28356.533,6.00,2835.654,1,6,0.100,50679.000,0.200,28228.000,0.300,5938.000,0.500,2048.000,1.000,1285.000,5.000,0
"07/03/06","18:04:26","AMMA06",87656.000,"cc",28303.375,6.00,2830.338,1,6,0.100,50239.000,0.200,28223.000,0.300,5902.000,0.500,2026.000,1.000,1266.000,5.000,0
"07/03/06","18:04:32","AMMA06",87942.000,"cc",28283.076,6.00,2828.308,1,6,0.100,50648.000,0.200,28125.000,0.300,5777.000,0.500,2087.000,1.000,1302.000,5.000,3.000
"07/03/06","18:04:38","AMMA06",88639.000,"cc",28328.324,6.00,2832.833,1,6,0.100,51028.000,0.200,28401.000,0.300,5894.000,0.500,2062.000,1.000,1252.000,5.000,2.000
"07/03/06","18:04:44","AMMA06",88505.000,"cc",28319.586,6.00,2831.959,1,6,0.100,50881.000,0.200,28430.000,0.300,5804.000,0.500,2032.000,1.000,1356.000,5.000,2.000
"07/03/06","18:04:50","AMMA06",88078.000,"cc",28247.699,6.00,2824.770,1,6,0.100,50617.000,0.200,28222.000,0.300,5959.000,0.500,2026.000,1.000,1254.000,5.000,0
"07/03/06","18:04:56","AMMA06",88838.000,"cc",28358.023,6.00,2835.803,1,6,0.100,50948.000,0.200,28565.000,0.300,5974.000,0.500,2051.000,1.000,1299.000,5.000,1.000
"07/03/06","18:05:02","AMMA06",88084.000,"cc",28353.809,6.00,2835.381,1,6,0.100,50598.000,0.200,28183.000,0.300,5985.000,0.500,2046.000,1.000,1272.000,5.000,0
"07/03/06","18:05:08","AMMA06",88474.000,"cc",28276.981,6.00,2827.698,1,6,0.100,50850.000,0.200,28252.000,0.300,6044.000,0.500,2062.000,1.000,1266.000,5.000,0
"07/03/06","18:05:14","AMMA06",88824.000,"cc",28305.703,6.00,2830.571,1,6,0.100,51383.000,0.200,28167.000,0.300,5854.000,0.500,2094.000,1.000,1325.000,5.000,1.000
"07/03/06","18:05:20","AMMA06",88845.000,"cc",28305.561,6.00,2830.556,1,6,0.100,50819.000,0.200,28608.000,0.300,6042.000,0.500,2091.000,1.000,1285.000,5.000,0
"07/03/06","18:05:26","AMMA06",89202.000,"cc",28361.084,6.00,2836.109,1,6,0.100,51594.000,0.200,28472.000,0.300,5838.000,0.500,2006.000,1.000,1289.000,5.000,3.000
"07/03/06","18:05:32","AMMA06",88817.000,"cc",28334.479,6.00,2833.448,1,6,0.100,51034.000,0.200,28208.000,0.300,6068.000,0.500,2149.000,1.000,1358.000,5.000,0
"07/03/06","18:05:38","AMMA06",89264.000,"cc",28350.691,6.00,2835.069,1,6,0.100,51482.000,0.200,28495.000,0.300,5862.000,0.500,2041.000,1.000,1384.000,5.000,0
"07/03/06","18:05:44","AMMA06",88607.000,"cc",28283.643,6.00,2828.365,1,6,0.100,51287.000,0.200,28150.000,0.300,5719.000,0.500,2110.000,1.000,1340.000,5.000,1.000
"07/03/06","18:05:50","AMMA06",88928.000,"cc",28303.418,6.00,2830.342,1,6,0.100,51445.000,0.200,28210.000,0.300,5870.000,0.500,2149.000,1.000,1252.000,5.000,2.000
"07/03/06","18:05:56","AMMA06",88784.000,"cc",28294.248,6.00,2829.425,1,6,0.100,51239.000,0.200,28247.000,0.300,5944.000,0.500,2052.000,1.000,1300.000,5.000,2.000
"07/03/06","18:06:02","AMMA06",88755.000,"cc",28295.014,6.00,2829.502,1,6,0.100,51174.000,0.200,28472.000,0.300,5750.000,0.500,2079.000,1.000,1280.000,5.000,0
"07/03/06","18:06:08","AMMA06",88516.000,"cc",28359.051,6.00,2835.905,1,6,0.100,51171.000,0.200,28292.000,0.300,5781.000,0.500,1990.000,1.000,1280.000,5.000,2.000
"07/03/06","18:06:14","AMMA06",88126.000,"cc",28303.758,6.00,2830.376,1,6,0.100,50753.000,0.200,28199.000,0.300,5727.000,0.500,2099.000,1.000,1347.000,5.000,1.000
"07/03/06","18:06:20","AMMA06",87971.000,"cc",28302.045,6.00,2830.205,1,6,0.100,50633.000,0.200,28090.000,0.300,5836.000,0.500,2107.000,1.000,1304.000,5.000,1.000
"07/03/06","18:06:26","AMMA06",88277.000,"cc",28302.363,6.00,2830.237,1,6,0.100,50547.000,0.200,28457.000,0.300,5813.000,0.500,2133.000,1.000,1327.000,5.000,0
"07/03/06","18:06:32","AMMA06",87851.000,"cc",28243.848,6.00,2824.385,1,6,0.100,50892.000,0.200,28142.000,0.300,5563.000,0.500,1999.000,1.000,1254.000,5.000,1.000
"07/03/06","18:06:38","AMMA06",88324.000,"cc",28343.213,6.00,2834.322,1,6,0.100,50885.000,0.200,28333.000,0.300,5791.000,0.500,2073.000,1.000,1242.000,5.000,0
"07/03/06","18:06:44","AMMA06",87649.000,"cc",28326.715,6.00,2832.672,1,6,0.100,50601.000,0.200,27958.000,0.300,5670.000,0.500,2049.000,1.000,1371.000,5.000,0
"07/03/06","18:06:50","AMMA06",87977.000,"cc",28324.635,6.00,2832.464,1,6,0.100,50891.000,0.200,28040.000,0.300,5756.000,0.500,2005.000,1.000,1284.000,5.000,1.000
"07/03/06","18:06:56","AMMA06",87210.000,"cc",28323.065,6.00,2832.307,1,6,0.100,50435.000,0.200,27704.000,0.300,5749.000,0.500,2068.000,1.000,1254.000,5.000,0
"07/03/06","18:07:02","AMMA06",88222.000,"cc",28269.867,6.00,2826.987,1,6,0.100,50715.000,0.200,28423.000,0.300,5698.000,0.500,2098.000,1.000,1287.000,5.000,1.000
"07/03/06","18:07:08","AMMA06",87102.000,"cc",28284.496,6.00,2828.450,1,6,0.100,50136.000,0.200,27784.000,0.300,5765.000,0.500,2132.000,1.000,1285.000,5.000,0
"07/03/06","18:07:14","AMMA06",86648.000,"cc",28369.340,6.00,2836.934,1,6,0.100,49751.000,0.200,28024.000,0.300,5611.000,0.500,2040.000,1.000,1222.000,5.000,0
"07/03/06","18:07:20","AMMA06",87145.000,"cc",28366.854,6.00,2836.686,1,6,0.100,49900.000,0.200,28048.000,0.300,5763.000,0.500,2143.000,1.000,1291.000,5.000,0
"07/03/06","18:07:26","AMMA06",86989.000,"cc",28314.832,6.00,2831.483,1,6,0.100,50054.000,0.200,27821.000,0.300,5836.000,0.500,2019.000,1.000,1259.000,5.000,0
"07/03/06","18:07:32","AMMA06",86549.000,"cc",28298.545,6.00,2829.855,1,6,0.100,49662.000,0.200,27944.000,0.300,5608.000,0.500,2078.000,1.000,1253.000,5.000,4.000
"07/03/06","18:07:38","AMMA06",86499.000,"cc",28318.174,6.00,2831.818,1,6,0.100,49482.000,0.200,27949.000,0.300,5754.000,0.500,2059.000,1.000,1252.000,5.000,3.000
"07/03/06","18:07:44","AMMA06",87156.000,"cc",28317.885,6.00,2831.789,1,6,0.100,50037.000,0.200,27941.000,0.300,5792.000,0.500,2044.000,1.000,1342.000,5.000,0
"07/03/06","18:07:50","AMMA06",87148.000,"cc",28319.656,6.00,2831.966,1,6,0.100,50071.000,0.200,27980.000,0.300,5694.000,0.500,2072.000,1.000,1330.000,5.000,1.000
"07/03/06","18:07:56","AMMA06",86684.000,"cc",28339.393,6.00,2833.940,1,6,0.100,49845.000,0.200,27798.000,0.300,5662.000,0.500,2089.000,1.000,1290.000,5.000,0
"07/03/06","18:08:02","AMMA06",86111.000,"cc",28285.717,6.00,2828.572,1,6,0.100,49335.000,0.200,27769.000,0.300,5578.000,0.500,2116.000,1.000,1311.000,5.000,2.000
"07/03/06","18:08:08","AMMA06",86017.000,"cc",28342.984,6.00,2834.299,1,6,0.100,48946.000,0.200,27980.000,0.300,5693.000,0.500,2052.000,1.000,1345.000,5.000,1.000
"07/03/06","18:08:14","AMMA06",86510.000,"cc",28331.127,6.00,2833.113,1,6,0.100,49366.000,0.200,28015.000,0.300,5786.000,0.500,2020.000,1.000,1323.000,5.000,0
"07/03/06","18:08:20","AMMA06",85835.000,"cc",28324.666,6.00,2832.467,1,6,0.100,49170.000,0.200,27817.000,0.300,5656.000,0.500,1998.000,1.000,1194.000,5.000,0
"07/03/06","18:08:26","AMMA06",87057.000,"cc",28289.111,6.00,2828.911,1,6,0.100,49836.000,0.200,28169.000,0.300,5711.000,0.500,2055.000,1.000,1286.000,5.000,0
"07/03/06","18:08:32","AMMA06",85471.000,"cc",28327.465,6.00,2832.747,1,6,0.100,48499.000,0.200,27801.000,0.300,5798.000,0.500,2098.000,1.000,1273.000,5.000,2.000
"07/03/06","18:08:38","AMMA06",84713.000,"cc",28316.766,6.00,2831.677,1,6,0.100,47890.000,0.200,27726.000,0.300,5757.000,0.500,2032.000,1.000,1307.000,5.000,1.000
"07/03/06","18:08:44","AMMA06",82682.000,"cc",28309.539,6.00,2830.954,1,6,0.100,45938.000,0.200,27679.000,0.300,5594.000,0.500,2125.000,1.000,1344.000,5.000,2.000
"07/03/06","18:08:50","AMMA06",83096.000,"cc",28300.279,6.00,2830.028,1,6,0.100,46579.000,0.200,27555.000,0.300,5549.000,0.500,2024.000,1.000,1389.000,5.000,0
"07/03/06","18:08:56","AMMA06",82682.000,"cc",28292.615,6.00,2829.262,1,6,0.100,45965.000,0.200,27678.000,0.300,5605.000,0.500,2070.000,1.000,1363.000,5.000,1.000
"07/03/06","18:09:02","AMMA06",82271.000,"cc",28334.037,6.00,2833.404,1,6,0.100,46119.000,0.200,27325.000,0.300,5536.000,0.500,2072.000,1.000,1218.000,5.000,1.000
"07/03/06","18:09:08","AMMA06",82811.000,"cc",28341.865,6.00,2834.187,1,6,0.100,46247.000,0.200,27723.000,0.300,5511.000,0.500,2000.000,1.000,1326.000,5.000,4.000
"07/03/06","18:09:14","AMMA06",82985.000,"cc",28314.891,6.00,2831.489,1,6,0.100,46362.000,0.200,27647.000,0.300,5686.000,0.500,1983.000,1.000,1305.000,5.000,2.000
"07/03/06","18:09:20","AMMA06",82377.000,"cc",28317.514,6.00,2831.752,1,6,0.100,45839.000,0.200,27430.000,0.300,5766.000,0.500,2066.000,1.000,1275.000,5.000,1.000
"07/03/06","18:09:26","AMMA06",82379.000,"cc",28320.752,6.00,2832.075,1,6,0.100,45720.000,0.200,27686.000,0.300,5542.000,0.500,2131.000,1.000,1299.000,5.000,1.000
"07/03/06","18:09:32","AMMA06",82236.000,"cc",28274.506,6.00,2827.451,1,6,0.100,45439.000,0.200,27755.000,0.300,5675.000,0.500,2013.000,1.000,1352.000,5.000,2.000
"07/03/06","18:09:38","AMMA06",82517.000,"cc",28349.264,6.00,2834.927,1,6,0.100,45682.000,0.200,27864.000,0.300,5640.000,0.500,2038.000,1.000,1291.000,5.000,2.000
"07/03/06","18:09:44","AMMA06",82528.000,"cc",28337.279,6.00,2833.728,1,6,0.100,46076.000,0.200,27388.000,0.300,5643.000,0.500,2106.000,1.000,1314.000,5.000,1.000
"07/03/06","18:09:50","AMMA06",82170.000,"cc",28352.641,6.00,2835.264,1,6,0.100,45587.000,0.200,27696.000,0.300,5603.000,0.500,1987.000,1.000,1295.000,5.000,2.000
"07/03/06","18:09:56","AMMA06",81924.000,"cc",28269.682,6.00,2826.968,1,6,0.100,45425.000,0.200,27472.000,0.300,5673.000,0.500,2096.000,1.000,1257.000,5.000,1.000
"07/03/06","18:10:02","AMMA06",82433.000,"cc",28291.440,6.00,2829.144,1,6,0.100,45818.000,0.200,27584.000,0.300,5648.000,0.500,2069.000,1.000,1312.000,5.000,2.000
"07/03/06","18:10:08","AMMA06",82192.000,"cc",28332.352,6.00,2833.235,1,6,0.100,45833.000,0.200,27329.000,0.300,5619.000,0.500,2107.000,1.000,1303.000,5.000,1.000
"07/03/06","18:10:14","AMMA06",82519.000,"cc",28377.203,6.00,2837.721,1,6,0.100,45828.000,0.200,27596.000,0.300,5719.000,0.500,2083.000,1.000,1292.000,5.000,1.000
"07/03/06","18:10:20","AMMA06",82313.000,"cc",28283.641,6.00,2828.364,1,6,0.100,45756.000,0.200,27381.000,0.300,5740.000,0.500,2151.000,1.000,1285.000,5.000,0
"07/03/06","18:10:26","AMMA06",82155.000,"cc",28283.758,6.00,2828.376,1,6,0.100,45354.000,0.200,27720.000,0.300,5754.000,0.500,1995.000,1.000,1332.000,5.000,0
"07/03/06","18:10:32","AMMA06",81817.000,"cc",28329.531,6.00,2832.953,1,6,0.100,45171.000,0.200,27604.000,0.300,5684.000,0.500,2050.000,1.000,1308.000,5.000,0
"07/03/06","18:10:38","AMMA06",80729.000,"cc",28376.803,6.00,2837.680,1,6,0.100,44297.000,0.200,27432.000,0.300,5692.000,0.500,1962.000,1.000,1346.000,5.000,0
"07/03/06","18:10:44","AMMA06",80592.000,"cc",28284.145,6.00,2828.415,1,6,0.100,43992.000,0.200,27528.000,0.300,5722.000,0.500,2026.000,1.000,1321.000,5.000,3.000
"07/03/06","18:10:50","AMMA06",79842.000,"cc",28312.088,6.00,2831.209,1,6,0.100,43698.000,0.200,27221.000,0.300,5635.000,0.500,2049.000,1.000,1239.000,5.000,0
"07/03/06","18:10:56","AMMA06",79490.000,"cc",28344.496,6.00,2834.450,1,6,0.100,43373.000,0.200,27241.000,0.300,5658.000,0.500,1998.000,1.000,1220.000,5.000,0
"07/03/06","18:11:02","AMMA06",79877.000,"cc",28337.440,6.00,2833.744,1,6,0.100,43371.000,0.200,27323.000,0.300,5799.000,0.500,2033.000,1.000,1350.000,5.000,1.000
"07/03/06","18:11:08","AMMA06",79565.000,"cc",28223.213,6.00,2822.322,1,6,0.100,43390.000,0.200,27282.000,0.300,5640.000,0.500,1989.000,1.000,1261.000,5.000,3.000
"07/03/06","18:11:14","AMMA06",79511.000,"cc",28384.775,6.00,2838.478,1,6,0.100,43337.000,0.200,27103.000,0.300,5755.000,0.500,1980.000,1.000,1335.000,5.000,1.000
"07/03/06","18:11:20","AMMA06",79708.000,"cc",28263.471,6.00,2826.347,1,6,0.100,43208.000,0.200,27522.000,0.300,5723.000,0.500,2000.000,1.000,1254.000,5.000,1.000
"07/03/06","18:11:26","AMMA06",79723.000,"cc",28344.852,6.00,2834.485,1,6,0.100,43312.000,0.200,27244.000,0.300,5862.000,0.500,2035.000,1.000,1268.000,5.000,2.000
"07/03/06","18:11:32","AMMA06",79497.000,"cc",28335.268,6.00,2833.527,1,6,0.100,43212.000,0.200,27162.000,0.300,5807.000,0.500,2029.000,1.000,1287.000,5.000,0
"07/03/06","18:11:38","AMMA06",79212.000,"cc",28293.418,6.00,2829.342,1,6,0.100,42671.000,0.200,27529.000,0.300,5681.000,0.500,2007.000,1.000,1323.000,5.000,1.000
"07/03/06","18:11:44","AMMA06",79900.000,"cc",28311.815,6.00,2831.182,1,6,0.100,43299.000,0.200,27458.000,0.300,5792.000,0.500,2075.000,1.000,1272.000,5.000,4.000
"07/03/06","18:11:50","AMMA06",79624.000,"cc",28318.598,6.00,2831.860,1,6,0.100,42831.000,0.200,27593.000,0.300,5860.000,0.500,2060.000,1.000,1277.000,5.000,3.000
"07/03/06","18:11:56","AMMA06",79123.000,"cc",28323.559,6.00,2832.356,1,6,0.100,42772.000,0.200,27236.000,0.300,5668.000,0.500,2104.000,1.000,1341.000,5.000,2.000
"07/03/06","18:12:02","AMMA06",79512.000,"cc",28272.184,6.00,2827.219,1,6,0.100,42904.000,0.200,27480.000,0.300,5832.000,0.500,2027.000,1.000,1268.000,5.000,1.000
"07/03/06","18:12:08","AMMA06",79647.000,"cc",28319.184,6.00,2831.919,1,6,0.100,43106.000,0.200,27362.000,0.300,5854.000,0.500,2092.000,1.000,1233.000,5.000,0
"07/03/06","18:12:14","AMMA06",79516.000,"cc",28368.848,6.00,2836.885,1,6,0.100,42734.000,0.200,27418.000,0.300,5912.000,0.500,2142.000,1.000,1309.000,5.000,1.000
"07/03/06","18:12:20","AMMA06",78757.000,"cc",28366.951,6.00,2836.695,1,6,0.100,42376.000,0.200,27324.000,0.300,5713.000,0.500,2097.000,1.000,1245.000,5.000,2.000
"07/03/06","18:12:26","AMMA06",80059.000,"cc",28277.311,6.00,2827.731,1,6,0.100,43093.000,0.200,27689.000,0.300,5868.000,0.500,2098.000,1.000,1311.000,5.000,0
"07/03/06","18:12:32","AMMA06",79039.000,"cc",28303.877,6.00,2830.388,1,6,0.100,42509.000,0.200,27346.000,0.300,5806.000,0.500,2011.000,1.000,1365.000,5.000,2.000
"07/03/06","18:12:38","AMMA06",79247.000,"cc",28326.440,6.00,2832.644,1,6,0.100,42548.000,0.200,27445.000,0.300,5876.000,0.500,2102.000,1.000,1275.000,5.000,1.000
"07/03/06","18:12:44","AMMA06",79766.000,"cc",28289.832,6.00,2828.983,1,6,0.100,43029.000,0.200,27469.000,0.300,5911.000,0.500,2051.000,1.000,1305.000,5.000,1.000
"07/03/06","18:12:50","AMMA06",79254.000,"cc",28371.158,6.00,2837.116,1,6,0.100,42695.000,0.200,27397.000,0.300,5771.000,0.500,2081.000,1.000,1310.000,5.000,0
"07/03/06","18:12:56","AMMA06",79330.000,"cc",28273.953,6.00,2827.396,1,6,0.100,42531.000,0.200,27736.000,0.300,5690.000,0.500,2097.000,1.000,1275.000,5.000,1.000
"07/03/06","18:13:02","AMMA06",79121.000,"cc",28317.029,6.00,2831.703,1,6,0.100,42446.000,0.200,27451.000,0.300,5861.000,0.500,2058.000,1.000,1304.000,5.000,1.000
"07/03/06","18:13:08","AMMA06",78506.000,"cc",28338.086,6.00,2833.809,1,6,0.100,41968.000,0.200,27510.000,0.300,5703.000,0.500,2064.000,1.000,1261.000,5.000,0
"07/03/06","18:13:14","AMMA06",79193.000,"cc",28304.080,6.00,2830.408,1,6,0.100,42735.000,0.200,27300.000,0.300,5792.000,0.500,2075.000,1.000,1290.000,5.000,1.000
"07/03/06","18:13:20","AMMA06",78567.000,"cc",28299.086,6.00,2829.909,1,6,0.100,42243.000,0.200,27137.000,0.300,5753.000,0.500,2102.000,1.000,1331.000,5.000,1.000
"07/03/06","18:13:26","AMMA06",78712.000,"cc",28324.813,6.00,2832.481,1,6,0.100,42343.000,0.200,27257.000,0.300,5774.000,0.500,2058.000,1.000,1278.000,5.000,2.000
"07/03/06","18:13:32","AMMA06",78813.000,"cc",28380.641,6.00,2838.064,1,6,0.100,42453.000,0.200,27303.000,0.300,5659.000,0.500,2082.000,1.000,1316.000,5.000,0
"07/03/06","18:13:38","AMMA06",78784.000,"cc",28282.738,6.00,2828.274,1,6,0.100,42128.000,0.200,27425.000,0.300,5861.000,0.500,2033.000,1.000,1334.000,5.000,3.000
"07/03/06","18:13:44","AMMA06",78529.000,"cc",28259.613,6.00,2825.961,1,6,0.100,42307.000,0.200,27048.000,0.300,5794.000,0.500,2044.000,1.000,1334.000,5.000,2.000
"07/03/06","18:13:50","AMMA06",79031.000,"cc",28319.990,6.00,2831.999,1,6,0.100,42628.000,0.200,27267.000,0.300,5773.000,0.500,2102.000,1.000,1259.000,5.000,2.000